Regional Weather Roundup
Issued by NWS

Home | Current Version | Previous Version | Text Only | Print | Product List | Glossary On
Versions: 1 2 3 4 5 6 7 8 9 10 11 12 13 14 15 16 17 18 19 20 21 22 23 24 25 26 27 28 29 30 31 32 33 34 35 36 37 38 39 40 41 42 43 44 45 46 47 48 49 50
000
ASUS43 KTOP 102008
RWRKS

WEATHER ROUNDUP FOR KANSAS
NATIONAL WEATHER SERVICE GOODLAND KS
200 PM CST WED FEB 10 2016

NOTE:  "FAIR" INDICATES FEW OR NO CLOUDS BELOW 12,000 FEET WITH NO
SIGNIFICANT WEATHER AND/OR OBSTRUCTIONS TO VISIBILITY.

KSZ001>006-013>018-027>032-041>047-102100-
NORTHWEST KANSAS

CITY           SKY/WX    TMP DP  RH WIND       PRES   REMARKS
GOODLAND       SUNNY     58  28  32 W14       30.03F
HAYS           SUNNY     61  30  31 NW21G26   29.94F
HILL CITY      SUNNY     55  30  38 W15       29.95F
RUSSELL        SUNNY     64  29  26 W22       29.91F
$$

KSZ061>065-074>080-084>089-102100-
SOUTHWEST KANSAS

CITY           SKY/WX    TMP DP  RH WIND       PRES   REMARKS
DODGE CITY     SUNNY     73  19  13 NW23      29.99F
ELKHART          N/A     77  18  11 NW14        N/A
GARDEN CITY    SUNNY     74  17  11 NW17G23   30.01F
GREAT BEND     SUNNY     70  27  19 NW23      29.93F
LIBERAL        SUNNY     77  23  13 NW13      30.05F
PRATT          SUNNY     72  20  14 NW23G29   29.95F
$$

KSZ066>073-081>083-090>101-102100-
SOUTHEAST KANSAS

CITY           SKY/WX    TMP DP  RH WIND       PRES   REMARKS
CHANUTE        SUNNY     51  22  31 S14       29.96F
COFFEYVILLE    SUNNY     54  22  28 S14       29.99F
HUTCHINSON     SUNNY     72  24  16 W16       29.91F
MEDICINE LODGE   N/A     74  26  16 W14       29.94F
NEWTON         SUNNY     57  28  33 SW18      29.93F
PARSONS        SUNNY     52  22  30 SW14G21   29.98F
WICHITA INTL   SUNNY     61  30  31 SW13      29.94F
WICHITA JABRA  SUNNY     58  29  33 SW16      29.94F
WICHITA MCCONL SUNNY     59  31  35 S13       29.95F
WINFIELD       SUNNY     61  31  32 SW18      29.97F
$$

KSZ007>012-019>026-033>040-048>060-102>105-102100-
NORTHEAST KANSAS

CITY           SKY/WX    TMP DP  RH WIND       PRES   REMARKS
CONCORDIA      SUNNY     55  30  38 NW14      29.89F
EMPORIA        SUNNY     57  24  28 SW15      29.90F
LAWRENCE       SUNNY     48  21  34 SW13      29.91F
MANHATTAN      SUNNY     57  28  33 W10       29.89F
MARYSVILLE     SUNNY     54  32  43 W10       29.85F
OLATHE IND     SUNNY     45  20  36 S16       29.93F
OLATHE EXE     SUNNY     44  18  35 SW13G21   29.93F
SALINA         SUNNY     69  27  20 W15G24    29.89F
TOPEKA BILLARD SUNNY     52  23  32 SW9       29.89F
TOPEKA FORBES  SUNNY     53  25  33 SW13      29.89F
$$



USA.gov is the U.S. government's official web portal to all federal, state and local government web resources and services.